COSMOS 249 DEB *, 3908

Orbit data source: Space-Track

COSMOS 249 DEB *, 3908 is space debris in LEO originally from a launch on Sun, 20 Oct 1968 UTC launched from the Tyuratam Missile And Space Complex (TTMTR). Debris objects in space refer to the collection of defunct objects orbiting the Earth. Examples of debris include non-operational satellites, rocket bodies, and fragments generated from explosions, collisions, or faulty payload assembly.

Loading next visibility...
Identifier
3908, 1968-091BL
Orbit
LEO
Country
Flag of CISCIS
Related business
Manufacturer
Unknown
Mission
Spacecraft
Bus & Motor
Unknown
Mass
Unknown
Launch date (UTC)
1968-10-20 (58 years ago)
Launch vehicle
Unknown
Launch site
Tyuratam Missile And Space Complex (TTMTR)
Object type
Payload
Rocket body
Debris
Shape & HBR
Unknown shape, 0.1 m
Radar Cross Section
Medium (>0.1 m² and <1 m²)

Expand to show TLE details & history
Last TLE update: 2 days ago

TLE from 2 days ago
0 COSMOS 249 DEB *
1 03908U 68091BL  26170.59871122  .00000153  00000-0  16800-3 0  9992
2 03908  63.3412 323.8894 0598224  33.1569  38.8442 13.36540373781814
Epoch: 2026-06-19T14:22Z
TLE epoch observation values (Epoch: 2026-06-19T14:22:08.649Z)
Latitude
60.49445°
Longitude
-97.53845°
Altitude
793.237 km
Speed
7.63 km/s
True Right ascension
01h 43m 17s
True Declination
60° 20' 51"
Sunlit
Object was in daylight at epoch
Visualization orbit readout
Latitude
Unknown
Longitude
Unknown
Altitude
Unknown
Speed
Unknown
Apparent Right ascension
Unknown
Apparent Declination
Unknown
Sunlit
N/A
Visualization observer readout
Local Sidereal Time
00:04:34
Azimuth
Unknown
Elevation
Unknown
Doppler factor
Unknown
Orbital elements
Apogee altitude
1,569.648 km
Perigee altitude
672.412 km
Semi-major axis
7,499.167 km
Eccentricity
0.05982
Inclination
63.3412°
RAAN
323.8894°
Arg. of periapsis
33.1569°
True anomaly
43.40411°
Mean anomaly
38.8442°
Eccentric anomaly
41.09728°
Mean motion
3.34213 °/min
Orbital period
107.72 mins
BSTAR
0.000168
Loading maneuver chart data...
Computing Atmospheric mass density...

Documentation

Showing up to 5 results
|